TimeMST,TemperatureF,Dew PointF,Humidity,Sea Level PressureIn,VisibilityMPH,Wind Direction,Wind SpeedMPH,Gust SpeedMPH,PrecipitationIn,Events,Conditions,WindDirDegrees,DateUTC
12:16 AM,35.6,8.6,33,30.15,10.0,South,11.5,-,N/A,,Clear,180,2012-11-21 07:16:00
12:36 AM,35.6,6.8,30,30.15,10.0,South,13.8,-,N/A,,Clear,170,2012-11-21 07:36:00
12:56 AM,35.6,3.2,26,30.15,10.0,South,13.8,-,N/A,,Clear,180,2012-11-21 07:56:00
1:16 AM,35.6,3.2,26,30.15,10.0,South,15.0,-,N/A,,Clear,180,2012-11-21 08:16:00
1:36 AM,35.6,1.4,24,30.14,10.0,South,15.0,18.4,N/A,,Clear,180,2012-11-21 08:36:00
1:56 AM,35.6,1.4,24,30.15,10.0,South,11.5,-,N/A,,Clear,190,2012-11-21 08:56:00
2:16 AM,35.6,1.4,24,30.15,10.0,South,10.4,-,N/A,,Clear,180,2012-11-21 09:16:00
2:36 AM,35.6,1.4,24,30.14,10.0,South,11.5,-,N/A,,Clear,190,2012-11-21 09:36:00
2:56 AM,35.6,1.4,24,30.14,10.0,SSW,11.5,-,N/A,,Clear,200,2012-11-21 09:56:00
3:16 AM,35.6,-0.4,22,30.13,10.0,SSW,10.4,-,N/A,,Clear,210,2012-11-21 10:16:00
3:36 AM,35.6,-0.4,22,30.13,10.0,SSW,10.4,-,N/A,,Clear,210,2012-11-21 10:36:00
3:56 AM,35.6,-2.2,20,30.12,10.0,SSW,11.5,17.3,N/A,,Clear,200,2012-11-21 10:56:00
4:16 AM,35.6,-2.2,20,30.12,10.0,SW,16.1,-,N/A,,Clear,220,2012-11-21 11:16:00
4:36 AM,35.6,-4.0,18,30.11,10.0,SW,13.8,-,N/A,,Clear,220,2012-11-21 11:36:00
4:56 AM,35.6,-2.2,20,30.11,10.0,SSW,15.0,-,N/A,,Clear,210,2012-11-21 11:56:00
5:16 AM,35.6,-4.0,18,30.11,10.0,SSW,16.1,23.0,N/A,,Clear,210,2012-11-21 12:16:00
5:36 AM,35.6,-4.0,18,30.10,10.0,SSW,16.1,20.7,N/A,,Clear,210,2012-11-21 12:36:00
5:56 AM,35.6,-4.0,18,30.09,10.0,SSW,15.0,-,N/A,,Clear,210,2012-11-21 12:56:00
6:16 AM,35.6,-4.0,18,30.09,10.0,SSW,16.1,-,N/A,,Clear,210,2012-11-21 13:16:00
6:36 AM,35.6,-4.0,18,30.09,10.0,SSW,16.1,20.7,N/A,,Clear,210,2012-11-21 13:36:00
6:56 AM,35.6,-5.8,17,30.09,10.0,SSW,17.3,21.9,N/A,,Clear,210,2012-11-21 13:56:00
7:16 AM,35.6,-5.8,17,30.09,10.0,SW,18.4,23.0,N/A,,Clear,220,2012-11-21 14:16:00
7:36 AM,37.4,-7.6,15,30.09,10.0,SSW,18.4,-,N/A,,Clear,210,2012-11-21 14:36:00
7:56 AM,37.4,-7.6,15,30.09,10.0,South,15.0,20.7,N/A,,Clear,190,2012-11-21 14:56:00
8:16 AM,37.4,-9.4,13,30.10,10.0,SSW,18.4,25.3,N/A,,Clear,200,2012-11-21 15:16:00
8:35 AM,37.4,-7.6,15,30.10,10.0,SSW,17.3,21.9,N/A,,Clear,210,2012-11-21 15:35:00
8:56 AM,37.4,-7.6,15,30.10,10.0,SSW,17.3,21.9,N/A,,Clear,210,2012-11-21 15:56:00
9:16 AM,37.4,-7.6,15,30.09,10.0,SW,13.8,21.9,N/A,,Clear,230,2012-11-21 16:16:00
9:36 AM,37.4,-5.8,16,30.10,10.0,WSW,15.0,-,N/A,,Clear,240,2012-11-21 16:36:00
9:56 AM,37.4,-5.8,16,30.10,10.0,WSW,15.0,20.7,N/A,,Clear,240,2012-11-21 16:56:00
10:16 AM,39.2,-5.8,15,30.10,10.0,WSW,8.1,18.4,N/A,,Clear,240,2012-11-21 17:16:00
10:36 AM,41.0,-5.8,14,30.10,10.0,SW,8.1,-,N/A,,Clear,230,2012-11-21 17:36:00
10:56 AM,39.2,-4.0,16,30.09,10.0,WSW,4.6,-,N/A,,Clear,240,2012-11-21 17:56:00
11:16 AM,41.0,-5.8,14,30.08,10.0,WSW,9.2,-,N/A,,Clear,240,2012-11-21 18:16:00
11:36 AM,41.0,-5.8,14,30.07,10.0,West,8.1,-,N/A,,Clear,270,2012-11-21 18:36:00
11:56 AM,41.0,-4.0,15,30.06,10.0,WSW,15.0,20.7,N/A,,Clear,240,2012-11-21 18:56:00
12:16 PM,41.0,-0.4,18,30.05,10.0,WSW,12.7,19.6,N/A,,Clear,240,2012-11-21 19:16:00
12:36 PM,41.0,-0.4,18,30.04,10.0,SW,13.8,23.0,N/A,,Clear,230,2012-11-21 19:36:00
12:56 PM,41.0,3.2,21,30.04,10.0,West,10.4,-,N/A,,Clear,280,2012-11-21 19:56:00
1:16 PM,41.0,1.4,19,30.04,10.0,West,11.5,16.1,N/A,,Clear,280,2012-11-21 20:16:00
1:36 PM,41.0,3.2,21,30.03,10.0,West,9.2,-,N/A,,Clear,280,2012-11-21 20:36:00
1:56 PM,41.0,3.2,21,30.03,10.0,West,13.8,-,N/A,,Clear,270,2012-11-21 20:56:00
2:16 PM,41.0,5.0,23,30.02,10.0,West,16.1,21.9,N/A,,Clear,280,2012-11-21 21:16:00
2:36 PM,41.0,3.2,21,30.01,10.0,West,17.3,26.5,N/A,,Clear,260,2012-11-21 21:36:00
2:55 PM,41.0,3.2,21,30.03,10.0,West,12.7,25.3,N/A,,Clear,280,2012-11-21 21:55:00
3:16 PM,41.0,1.4,19,30.03,10.0,West,15.0,21.9,N/A,,Clear,260,2012-11-21 22:16:00
3:36 PM,41.0,3.2,21,30.03,10.0,West,10.4,20.7,N/A,,Clear,270,2012-11-21 22:36:00
3:56 PM,41.0,-2.2,16,30.02,10.0,West,13.8,26.5,N/A,,Clear,260,2012-11-21 22:56:00
4:16 PM,41.0,-0.4,18,30.01,10.0,WSW,17.3,24.2,N/A,,Clear,250,2012-11-21 23:16:00
4:36 PM,41.0,-2.2,16,30.00,10.0,WSW,23.0,32.2,N/A,,Clear,250,2012-11-21 23:36:00
4:56 PM,37.4,-0.4,20,30.00,10.0,West,18.4,36.8,N/A,,Clear,260,2012-11-21 23:56:00
5:16 PM,37.4,1.4,22,30.01,10.0,WSW,20.7,34.5,N/A,,Clear,250,2012-11-22 00:16:00
5:36 PM,37.4,1.4,22,30.02,10.0,WSW,19.6,35.7,N/A,,Clear,250,2012-11-22 00:36:00
5:56 PM,35.6,1.4,24,30.02,10.0,WSW,18.4,27.6,N/A,,Clear,240,2012-11-22 00:56:00
6:16 PM,37.4,1.4,22,30.02,10.0,SW,21.9,28.8,N/A,,Clear,230,2012-11-22 01:16:00
6:36 PM,35.6,1.4,24,30.02,10.0,WSW,20.7,26.5,N/A,,Clear,240,2012-11-22 01:36:00
6:56 PM,35.6,-0.4,22,30.02,10.0,WSW,17.3,24.2,N/A,,Clear,240,2012-11-22 01:56:00
7:16 PM,35.6,-0.4,22,30.01,10.0,WSW,18.4,26.5,N/A,,Clear,250,2012-11-22 02:16:00
7:36 PM,35.6,-0.4,22,30.01,10.0,WSW,18.4,26.5,N/A,,Clear,240,2012-11-22 02:36:00
7:56 PM,35.6,-0.4,22,30.00,10.0,WSW,17.3,27.6,N/A,,Clear,240,2012-11-22 02:56:00
8:16 PM,35.6,1.4,24,30.00,10.0,SW,17.3,25.3,N/A,,Clear,230,2012-11-22 03:16:00
8:36 PM,35.6,1.4,24,30.00,10.0,WSW,17.3,21.9,N/A,,Clear,240,2012-11-22 03:36:00
8:56 PM,35.6,1.4,24,30.00,10.0,WSW,16.1,-,N/A,,Clear,250,2012-11-22 03:56:00
9:16 PM,35.6,1.4,24,30.00,10.0,WSW,18.4,24.2,N/A,,Clear,250,2012-11-22 04:16:00
9:36 PM,33.8,5.0,30,30.00,10.0,West,15.0,21.9,N/A,,Clear,260,2012-11-22 04:36:00
9:56 PM,33.8,6.8,32,30.00,10.0,WSW,15.0,21.9,N/A,,Clear,250,2012-11-22 04:56:00
10:16 PM,33.8,6.8,32,29.99,10.0,WSW,18.4,25.3,N/A,,Clear,250,2012-11-22 05:16:00
10:36 PM,33.8,8.6,35,30.00,10.0,West,16.1,24.2,N/A,,Clear,260,2012-11-22 05:36:00
10:56 PM,33.8,8.6,35,30.00,10.0,WSW,17.3,25.3,N/A,,Clear,250,2012-11-22 05:56:00
11:16 PM,33.8,8.6,35,30.01,10.0,WSW,16.1,26.5,N/A,,Clear,250,2012-11-22 06:16:00
11:36 PM,33.8,8.6,35,30.01,10.0,West,17.3,26.5,N/A,,Scattered Clouds,260,2012-11-22 06:36:00
11:56 PM,33.8,8.6,35,30.01,10.0,West,15.0,24.2,N/A,,Scattered Clouds,260,2012-11-22 06:56:00